Wind_Speed
11 6 5 3 3 4 4 7 5 14 9 2 8 7 9 8 7 5 18 27 41 45 40 37 35 34 34 32 30 29 26 24 21 19 18 17 16 15 14 13 12 11 9 9 8 7 7 6 5
8 4 3 2 4 1 6 6 16 8 13 17 17 3 3 3 5 9 20 31 48 46 42 39 37 36 35 33 31 29 27 25 23 21 18 17 16 15 14 13 11 9 9 8 7 7 7 6 6
5 1 3 3 4 6 6 3 5 6 12 18 9 8 7 8 3 20 20 44 51 48 44 41 39 37 36 34 32 30 27 25 23 21 20 18 16 15 14 12 11 10 9 9 8 9 9 7 6
2 4 2 2 10 8 6 11 14 14 16 16 8 4 2 12 22 22 37 49 52 50 46 43 40 38 37 35 33 31 28 26 25 23 21 19 17 15 14 13 12 11 10 10 10 10 10 9 7
2 3 1 4 10 8 9 8 8 13 12 18 7 7 7 1 20 37 47 50 51 49 46 44 41 39 37 36 34 31 29 27 26 24 22 21 18 16 15 14 13 13 12 12 11 11 10 10 8
1 3 1 6 14 13 8 8 6 7 9 19 9 4 2 9 31 43 51 52 50 51 47 44 42 39 37 35 34 32 30 29 27 25 24 21 20 18 17 15 15 15 14 13 12 12 12 11 9
4 4 6 5 11 13 12 5 11 7 9 12 6 1 2 5 22 44 48 48 49 50 49 46 44 40 36 34 33 32 30 28 27 26 25 23 22 20 19 17 17 16 16 15 14 14 13 12 11
3 2 4 5 11 11 7 3 5 10 16 6 5 1 2 6 22 25 27 33 44 47 46 46 44 41 38 35 32 30 29 28 26 26 25 24 22 21 21 20 20 18 18 17 17 16 15 14 13
1 4 10 12 12 11 9 8 15 6 8 10 9 7 5 19 23 22 22 19 22 35 43 45 44 41 38 35 33 29 28 27 25 25 25 23 24 24 23 22 21 21 21 20 19 19 18 17 16
5 5 8 6 10 12 14 17 19 17 17 18 12 14 21 18 30 24 19 18 23 26 37 43 43 41 39 36 34 32 31 30 29 29 28 27 26 26 25 24 24 23 24 23 22 21 21 19 19
4 11 7 7 9 8 14 22 15 16 17 15 9 10 9 11 8 6 30 35 38 41 33 41 43 41 40 38 36 34 32 32 31 31 30 29 28 28 28 27 26 26 27 26 25 24 24 24 22
7 10 7 10 15 15 19 19 21 18 21 13 17 3 5 6 3 6 9 9 21 27 30 33 35 32 36 38 37 36 35 35 34 35 32 31 31 31 31 29 29 29 29 29 28 27 27 27 24
6 9 9 11 12 16 17 21 23 24 22 14 22 7 5 3 4 8 13 6 29 27 28 30 29 27 27 26 33 35 36 38 37 35 33 34 34 35 33 33 31 32 31 30 30 29 28 30 27
5 7 9 7 9 6 8 13 12 27 20 14 16 21 7 6 9 12 4 16 28 28 28 30 26 23 21 23 30 33 35 37 35 36 34 34 36 36 34 35 35 34 33 31 30 30 30 31 28
7 7 9 6 3 4 7 16 23 14 10 12 11 19 8 7 5 11 23 18 27 33 33 31 31 31 26 24 36 37 33 34 35 34 31 31 32 34 32 32 35 37 34 33 31 31 31 30 28
6 4 4 3 7 5 8 24 22 12 10 17 11 13 16 7 10 18 22 27 25 32 32 32 29 23 31 36 44 41 33 34 36 33 33 31 31 33 31 31 34 33 33 33 32 32 32 28 27
3 4 6 7 6 6 6 16 8 8 8 16 18 9 16 15 9 19 18 26 35 27 35 34 33 38 35 36 49 43 34 34 36 33 33 32 30 32 33 33 33 30 32 34 33 33 32 29 27
6 5 6 4 5 1 7 15 8 6 6 8 10 11 14 17 12 18 24 22 26 32 39 46 42 39 40 42 46 43 38 36 35 35 34 32 31 33 33 33 34 30 32 33 32 33 31 29 27
7 10 7 5 8 6 8 15 14 6 6 8 9 12 13 15 19 20 26 30 23 22 36 38 29 42 42 36 35 36 37 46 44 41 38 35 33 34 34 34 35 33 35 35 35 31 28 27 24
8 5 7 6 7 11 12 21 18 8 6 7 10 11 11 13 17 18 20 30 34 29 29 32 39 35 45 42 41 33 37 44 44 40 36 34 34 36 35 36 37 36 35 34 31 33 21 20 21
5 5 8 8 12 8 6 17 16 15 5 6 8 9 10 10 13 15 13 17 30 31 28 30 37 49 48 49 39 28 27 18 26 31 30 30 32 34 34 35 36 35 34 34 33 33 29 17 21
3 7 10 12 9 4 3 13 16 12 14 7 9 8 11 11 11 10 13 11 19 27 25 24 26 46 48 47 38 37 28 20 29 26 27 24 23 26 33 34 34 33 34 32 29 26 27 23 16
6 6 6 9 10 4 9 6 14 5 13 15 13 15 11 12 10 12 14 18 28 32 28 26 23 36 43 48 41 37 30 33 31 30 24 22 27 27 31 31 30 29 29 24 24 25 25 25 21
3 4 6 4 3 6 9 8 26 12 10 14 12 13 14 16 15 14 14 24 23 28 25 24 25 31 41 37 38 37 34 33 29 27 20 22 24 26 29 26 24 25 27 21 22 25 21 23 22
1 4 4 5 3 5 2 5 19 9 3 2 9 12 12 12 12 15 17 14 17 21 28 29 32 35 37 37 38 39 39 38 37 29 25 24 25 27 25 24 25 26 19 22 19 20 19 22 21
5 6 4 4 6 10 13 7 5 7 3 3 7 9 10 8 10 14 17 17 17 22 29 32 34 35 41 44 46 45 43 39 35 29 28 27 31 30 28 26 23 20 18 20 14 15 18 21 18
2 4 7 3 3 5 5 7 6 5 6 9 10 10 13 13 10 14 17 14 21 24 28 31 32 38 43 44 43 38 40 34 33 30 27 28 32 30 27 25 24 19 20 17 14 17 19 19 17
6 2 2 2 3 5 5 5 6 8 8 10 13 12 14 14 14 14 13 16 24 26 30 30 38 38 44 43 41 40 36 33 31 29 26 29 28 25 24 22 22 21 19 15 17 18 17 15 14
3 2 2 2 3 4 5 5 6 8 10 8 12 13 12 16 16 12 13 16 22 22 28 32 32 32 33 34 34 31 31 32 30 27 27 27 26 24 23 22 19 19 20 20 19 16 15 15 16
4 4 5 3 3 3 3 8 10 11 12 7 11 15 15 15 15 12 12 12 15 20 21 27 27 23 25 27 28 29 29 28 27 26 27 26 25 23 23 22 21 20 22 23 19 15 16 16 18
Wind_Direction
330 340 338 35 53 67 246 253 251 274 334 235 294 250 214 162 157 203 156 162 163 161 163 166 163 158 153 152 152 152 153 152 152 153 150 149 149 148 147 146 145 145 147 147 150 152 155 156 151
333 33 29 79 101 135 264 230 248 286 272 292 304 316 234 206 138 125 129 170 161 160 165 169 167 162 158 157 157 158 160 159 160 162 162 161 161 159 156 157 159 159 157 160 164 165 163 160 161
343 12 78 124 174 197 236 212 233 265 283 280 290 179 177 170 97 147 178 164 159 162 168 173 171 166 163 163 163 164 166 166 168 170 171 171 172 170 168 169 172 174 178 182 183 180 179 175 177
86 32 21 127 247 259 245 305 307 306 307 290 275 237 142 207 155 171 164 162 159 164 171 175 173 172 168 168 169 171 172 173 176 177 178 180 180 181 180 180 185 188 193 195 196 191 190 187 186
113 79 279 236 257 260 279 276 294 293 289 293 311 320 139 277 152 155 161 163 162 167 173 177 176 176 170 172 173 176 178 181 183 184 185 188 189 193 192 193 196 199 203 205 206 204 201 203 199
23 114 161 237 255 267 277 286 287 289 293 308 320 89 240 156 143 156 162 165 167 169 176 178 180 179 174 175 178 180 185 188 189 191 194 197 198 200 203 205 207 210 211 214 215 215 216 214 217
172 129 219 242 269 288 273 316 297 267 294 301 283 264 281 185 168 161 165 167 170 173 176 180 183 181 178 179 183 184 189 194 196 198 200 203 204 207 212 212 217 218 219 220 223 224 226 227 230
186 160 223 222 251 275 273 298 295 293 292 278 279 321 194 227 168 152 154 163 169 174 179 182 186 184 181 182 188 189 194 199 202 205 207 207 211 215 219 220 223 224 225 226 226 229 231 234 236
296 204 227 227 237 250 334 309 300 300 326 318 331 328 105 150 147 133 134 145 161 173 184 187 188 187 186 184 191 195 200 204 208 211 213 214 219 221 224 226 227 229 230 230 231 231 234 237 241
183 210 223 246 248 287 310 298 299 329 327 315 351 349 55 154 155 148 152 166 172 180 189 192 194 190 189 188 194 197 202 207 211 214 216 220 225 226 228 230 231 233 235 234 234 235 238 239 243
214 244 258 275 286 295 291 288 306 305 300 296 319 353 13 59 16 303 171 179 181 192 188 196 198 197 194 192 197 200 205 212 215 219 220 223 227 228 229 230 232 232 234 234 234 234 238 241 243
252 263 260 261 264 269 272 287 281 280 270 275 287 213 315 87 28 308 316 206 168 177 186 196 196 203 201 198 202 206 209 215 219 222 222 224 228 229 230 232 233 236 235 237 236 236 240 245 245
258 277 273 267 261 250 258 264 272 279 276 283 288 264 219 273 124 114 144 177 179 171 184 191 192 198 206 213 213 213 217 222 225 226 228 229 230 232 234 235 236 237 238 238 239 239 241 245 246
303 302 290 295 289 280 288 288 284 270 283 277 273 284 193 241 138 121 277 146 156 167 180 186 187 188 199 210 233 221 223 228 229 231 231 234 237 238 237 239 237 239 238 239 242 243 243 246 248
305 307 316 293 269 285 280 279 259 279 311 284 264 284 266 209 150 154 171 178 168 159 166 171 180 172 179 218 241 231 222 226 229 232 235 234 238 239 239 239 239 239 240 240 241 243 245 247 250
324 324 327 310 351 277 161 262 264 271 280 281 274 277 279 218 244 177 198 200 178 165 174 179 181 193 213 225 238 233 229 230 233 234 238 236 237 241 237 238 237 237 237 237 237 237 240 242 246
323 258 266 306 238 232 175 269 293 320 272 274 279 271 282 279 226 255 186 201 216 214 187 193 202 206 214 224 218 226 231 232 236 238 239 240 240 242 241 240 240 235 234 232 235 235 236 237 239
253 262 268 279 290 35 289 275 283 298 316 296 300 295 281 275 254 240 251 201 205 221 229 220 215 213 213 217 215 219 225 227 233 236 239 242 246 245 241 242 241 236 231 229 229 232 232 234 243
263 271 270 284 297 281 275 276 286 281 302 306 300 301 299 292 277 262 251 255 226 213 223 225 232 206 211 202 203 212 219 227 230 232 236 238 241 246 246 243 240 235 229 230 228 228 228 228 236
312 311 309 275 304 305 302 288 284 270 253 265 275 280 284 296 295 274 257 241 251 241 220 227 230 227 211 208 210 210 214 220 222 226 227 229 233 239 242 242 237 232 226 226 228 225 215 223 215
337 353 348 335 324 333 329 288 292 293 247 278 286 272 280 271 284 286 268 239 241 239 247 237 228 223 218 211 208 201 211 207 218 229 232 237 241 244 241 237 234 231 226 223 226 225 220 201 200
335 348 331 321 329 279 6 285 286 289 289 267 281 284 282 283 279 273 281 271 236 240 232 237 236 214 208 207 199 198 202 202 225 230 237 239 248 248 236 231 230 229 222 223 224 222 221 217 188
268 333 306 306 286 297 262 263 286 327 295 298 289 276 270 275 266 276 281 280 259 243 232 240 236 216 207 207 209 209 211 222 232 239 243 250 255 250 226 222 220 219 210 217 224 217 216 216 208
311 318 318 326 222 247 275 220 277 256 272 276 329 347 337 336 325 308 284 283 279 249 223 214 214 219 215 209 213 217 219 225 229 238 242 239 237 220 213 210 208 211 217 216 223 224 218 210 215
157 14 327 331 346 241 8 296 260 270 64 107 318 314 313 313 320 318 315 301 285 278 242 216 208 209 213 219 226 228 230 230 229 228 223 216 204 198 194 194 195 203 215 218 210 202 203 211 207
241 181 165 258 280 289 290 249 266 80 47 287 276 271 295 305 315 312 310 308 279 260 258 231 212 209 212 215 221 227 228 227 227 221 219 208 201 195 191 193 194 197 206 203 195 207 215 207 211
253 193 206 188 231 262 236 278 279 45 341 332 322 319 309 315 307 310 308 308 315 289 273 233 217 216 216 218 223 224 229 217 217 215 211 206 203 194 188 188 190 200 204 197 202 207 200 200 200
181 211 272 10 286 251 260 270 257 313 302 310 315 313 300 307 303 303 300 305 310 323 292 245 222 213 217 221 224 225 223 215 204 202 197 200 196 191 187 189 196 198 196 191 191 185 189 193 196
312 222 59 126 201 267 295 259 230 247 260 266 282 290 297 299 292 287 293 291 303 306 317 269 229 209 205 212 212 208 206 196 194 193 193 193 187 187 190 192 186 181 183 182 179 182 187 198 207
239 213 159 194 210 230 257 259 258 224 244 248 284 304 299 277 273 271 282 287 296 309 313 303 235 213 207 199 190 182 180 183 184 186 186 182 179 180 180 179 177 178 177 179 178 187 200 206 203
Height
768 768 767 768 796 804 806 788 759 754 751 728 726 728 724 717 729 755 712 720 720 733 742 748 749 751 752 756 760 764 768 772 775 779 781 782 784 786 788 790 792 794 796 797 798 798 799 800 801
768 768 768 775 808 818 803 767 762 755 739 723 720 717 721 723 703 712 716 719 720 727 739 746 749 750 752 755 760 764 768 770 773 777 780 782 784 785 786 789 792 794 794 796 797 798 799 799 800
767 768 777 790 808 813 795 756 752 741 732 727 724 704 712 713 702 701 706 711 714 724 735 744 747 749 751 755 758 762 767 770 773 776 778 781 783 785 786 788 791 792 794 795 797 797 798 799 799
766 771 777 796 799 780 765 753 745 743 727 715 712 716 700 688 691 697 701 712 712 723 734 741 745 748 749 752 757 761 764 767 771 774 777 780 782 784 786 787 790 792 793 795 796 797 798 798 798
766 776 796 795 785 768 753 749 745 747 737 720 708 714 708 695 692 693 701 710 713 723 732 739 743 748 748 751 755 759 763 765 768 772 774 777 780 783 784 786 788 790 791 793 795 796 796 798 798
773 777 803 802 773 755 749 743 744 741 730 717 711 712 710 699 693 696 701 706 713 719 730 737 742 746 747 750 754 756 760 763 765 769 772 775 778 780 783 784 786 788 790 792 793 795 796 796 797
775 785 797 785 772 761 750 736 744 742 735 722 707 716 708 703 698 694 700 706 713 719 726 734 740 743 746 750 753 754 759 761 763 766 769 773 775 778 780 782 785 787 788 790 792 793 795 795 797
766 772 783 780 772 763 741 738 733 738 728 709 703 716 717 699 703 705 709 712 713 718 726 731 738 740 743 747 752 754 757 760 762 765 768 771 774 776 779 780 783 784 787 788 790 791 793 794 795
760 783 778 771 768 753 738 744 724 724 726 716 710 700 687 697 707 713 716 720 721 722 726 731 736 738 741 743 750 754 757 759 761 764 767 769 771 773 777 778 781 783 785 786 788 789 790 792 793
769 783 769 752 751 751 744 737 733 735 732 721 718 702 696 704 703 706 715 718 721 723 727 731 735 735 737 741 745 749 754 756 757 759 762 765 768 771 773 775 778 780 782 784 785 786 788 789 790
760 764 755 751 748 745 746 739 735 739 738 729 726 717 709 709 716 717 701 702 707 714 725 727 733 734 736 736 741 745 748 753 754 757 758 761 764 768 769 771 773 775 778 780 781 783 785 786 787
767 755 753 749 746 747 747 738 734 735 728 720 711 716 713 714 716 718 720 711 711 716 720 727 731 738 738 736 737 741 744 747 749 751 753 756 759 762 764 765 769 772 775 776 777 779 781 783 785
760 754 748 745 743 741 741 738 732 725 714 716 705 711 712 711 711 716 712 716 709 716 718 723 728 733 738 742 738 738 741 744 744 747 748 751 753 756 758 760 764 767 770 771 773 774 776 778 781
757 755 752 745 745 742 743 735 731 710 709 711 709 699 708 704 708 709 714 711 709 713 717 720 723 729 732 733 741 735 738 741 742 742 742 746 748 750 753 755 758 761 765 767 770 771 772 773 776
757 761 752 747 742 744 738 739 729 716 711 711 710 700 698 701 703 707 710 716 713 705 711 715 718 721 721 724 735 736 734 737 738 738 739 741 743 744 747 749 753 755 758 762 765 767 768 770 772
765 763 770 748 743 738 741 739 714 714 718 712 709 702 695 699 695 704 706 710 713 707 706 710 713 714 716 725 733 733 730 732 733 734 734 736 738 739 742 744 748 752 753 756 761 763 764 766 769
772 781 770 761 743 741 742 736 718 713 715 711 703 703 697 692 694 694 701 703 708 709 703 701 705 707 711 718 722 724 724 727 728 729 731 731 733 736 737 739 742 748 751 751 754 759 761 762 765
777 773 764 761 746 741 744 736 726 719 719 717 713 706 700 692 688 687 689 696 698 701 703 698 699 699 702 709 713 715 718 719 722 723 725 726 727 730 731 734 737 743 747 748 749 753 757 759 761
763 763 764 753 742 742 742 733 723 719 717 719 715 709 705 696 685 681 682 683 689 691 693 697 698 692 695 699 705 709 710 712 715 717 718 721 724 725 726 728 731 736 740 743 746 750 753 755 759
758 762 762 749 740 741 742 728 715 716 716 713 712 708 703 696 687 679 679 678 677 680 685 688 690 693 689 691 693 697 700 703 706 711 713 715 718 719 721 723 725 730 733 738 743 746 749 752 755
760 764 764 764 749 745 744 732 721 710 711 709 708 706 701 697 690 683 678 675 674 672 675 677 681 683 687 685 689 693 699 702 705 706 706 708 710 713 715 717 721 725 728 732 737 739 744 748 751
766 757 756 756 762 771 750 754 730 719 712 710 706 704 700 692 686 681 676 672 668 667 668 670 671 675 678 682 683 685 686 691 693 696 699 703 703 705 708 711 715 721 724 728 734 736 739 743 746
760 755 756 754 757 760 753 764 721 718 717 710 703 697 693 687 683 678 670 665 660 659 661 662 662 666 671 674 676 678 679 684 688 692 694 697 698 700 702 705 711 718 722 726 730 733 734 737 741
751 755 757 759 759 768 746 754 708 720 713 704 701 703 697 693 683 676 667 662 656 654 653 653 655 658 665 667 670 671 674 679 684 687 690 692 694 695 697 702 708 715 720 723 727 730 731 734 737
757 769 787 781 773 764 739 746 723 708 711 718 713 704 696 690 686 679 673 664 655 650 651 647 649 651 656 661 665 666 669 672 676 681 685 687 689 693 696 700 705 712 716 721 723 726 729 732 735
762 768 798 786 770 759 749 744 724 712 708 708 706 702 692 686 681 676 671 662 654 648 645 645 643 645 648 651 653 657 661 665 670 677 679 682 685 689 693 699 704 710 715 718 720 724 726 730 733
756 766 756 778 763 764 749 726 708 705 705 699 697 691 687 680 677 669 663 658 648 641 636 634 635 636 640 643 647 651 655 660 665 672 675 677 682 688 692 697 703 707 712 715 718 721 725 728 731
749 748 769 780 768 754 734 727 724 711 707 701 693 690 682 677 671 664 659 652 643 638 631 627 624 625 629 634 640 645 649 654 661 667 669 674 681 687 691 695 700 705 709 712 717 720 724 727 731
753 755 759 766 764 750 748 735 714 711 703 703 695 686 679 673 667 659 652 647 641 635 629 620 614 617 622 628 633 639 645 652 658 661 666 672 679 684 689 694 699 703 707 712 716 719 723 726 729
743 747 755 767 756 752 748 732 698 702 696 696 687 677 672 666 659 652 646 640 635 632 624 615 608 612 614 621 629 636 642 648 653 658 664 670 676 682 688 694 698 702 707 712 715 719 722 724 727